Amman, Jordan

10:46 AM EET on January 18, 2017 (GMT +0200)
Amman

Weather History for 40270 - March, 2014

Change the Weather History Date:

Monday, March 10, 2014

  Actual Average Record
Temperature  
Mean Temperature 54 °F -  
Max Temperature 58 °F 64 °F - ()
Min Temperature 49 °F 46 °F - ()
Degree Days  
Heating Degree Days 12    
Growing Degree Days 4 (Base 50)    
Moisture  
Dew Point 46 °F    
Average Humidity 74    
Maximum Humidity 96    
Minimum Humidity 53    
Precipitation  
Precipitation 0.04 in 0.05 in - ()
Sea Level Pressure  
Sea Level Pressure 29.88 in    
Wind  
Wind Speed 10 mph ()    
Max Wind Speed 45 mph    
Max Gust Speed -    
Visibility 3.2 miles    
Events Rain    
T = Trace of Precipitation, MM = Missing Value Source: Averaged Metar Reports

Daily Weather History Graph

Daily Weather History Graph

Search for Another Location

Airport or City:

Trip Planner

Search our weather history database for the weather conditions in past years. The results will help you decide how hot, cold, wet, or windy it might be!

Date:

Astronomy

Mar. 10, 2014 Rise Set
Actual Time 5:52 AM EET 5:40 PM EET
Civil Twilight 5:28 AM EET 6:04 PM EET
Nautical Twilight 5:00 AM EET 6:33 PM EET
Astronomical Twilight 4:31 AM EET 7:01 PM EET
Moon 12:20 PM EET (3/10) 1:34 AM EET (3/10)
Length of Visible Light 12h 36m
Length of Day
11h 47m
Waxing Gibbous, 67% of the Moon is Illuminated
Mar 10
Waxing Gibbous
Mar 16
Full
Mar 24
Last Quarter
Mar 30
New
Apr 7
First Quarter

Hourly Weather History & Observations

Time (EET) Temp. Dew Point Humidity Pressure Visibility Wind Dir Wind Speed Gust Speed Precip Events Conditions
12:00 AM 55.4 °F 53.6 °F 94% 29.86 in 1.2 mi SE 3.5 mph - N/A Rain Rain
1:00 AM 55.4 °F 53.6 °F 94% 29.83 in 2.5 mi Calm Calm - N/A   Mostly Cloudy
2:00 AM 55 °F 54 °F 96% 29.75 in 2 mi West 9.2 mph - - Rain Rain
2:00 AM 55.4 °F 53.6 °F 94% 29.80 in 1.9 mi West 9.2 mph - N/A Rain Rain
3:00 AM 55.4 °F 53.6 °F 94% 29.80 in 3.1 mi West 9.2 mph - N/A   Overcast
4:00 AM 50.0 °F 48.2 °F 94% 29.83 in 2.5 mi West 18.4 mph - N/A Rain Rain
5:00 AM 51 °F 45 °F 74% 29.75 in 2 mi WNW 13.4 mph - - Rain Light Drizzle
5:00 AM 51.8 °F 44.6 °F 76% 29.80 in 2.5 mi WNW 6.9 mph - N/A   Drizzle
6:00 AM 50.0 °F 46.4 °F 87% 29.80 in 2.5 mi West 11.5 mph - N/A   Drizzle
7:00 AM 50.0 °F 44.6 °F 82% 29.86 in 3.1 mi NW 15.0 mph - N/A   Smoke
8:00 AM 52 °F 45 °F 68% 29.85 in 3 mi NW 26.8 mph - -   Haze
8:00 AM 51.8 °F 44.6 °F 76% 29.89 in 3.1 mi NW 13.8 mph - N/A   Haze
9:00 AM 53.6 °F 44.6 °F 72% 29.89 in 3.1 mi NW 11.5 mph - N/A   Haze
10:00 AM 53.6 °F 44.6 °F 72% 29.89 in 3.7 mi WNW 10.4 mph - N/A   Mostly Cloudy
11:00 AM 55 °F 46 °F 64% 29.88 in 4 mi West 9.2 mph - -   Haze
11:00 AM 55.4 °F 46.4 °F 72% 29.92 in 4.3 mi West 9.2 mph - N/A   Scattered Clouds
12:00 PM 57.2 °F 44.6 °F 63% 29.92 in 4.3 mi WNW 11.5 mph - N/A   Scattered Clouds
2:00 PM 56 °F 44 °F 54% 29.86 in 3 mi West 44.7 mph - - Rain Light Rain
2:00 PM 55.4 °F 44.6 °F 67% 29.89 in 3.1 mi West 16.1 mph - N/A   Haze
3:00 PM 55.4 °F 44.6 °F 67% 29.89 in 3.1 mi West 16.1 mph - N/A   Haze
4:00 PM 55.4 °F 42.8 °F 63% 29.89 in 3.1 mi West 16.1 mph - N/A   Haze
5:00 PM 55 °F 43 °F 53% 29.89 in 3 mi WNW 26.8 mph - -   Haze
5:00 PM 55.4 °F 42.8 °F 63% 29.92 in 3.1 mi WNW 13.8 mph - N/A   Haze
6:00 PM 51.8 °F 41.0 °F 67% 29.92 in 3.1 mi West 11.5 mph - N/A   Haze
7:00 PM 51.8 °F 42.8 °F 71% 29.95 in 3.1 mi West 8.1 mph - N/A   Haze
8:00 PM 50 °F 42 °F 67% 29.96 in 4 mi West 15.7 mph - -   Haze
8:00 PM 50.0 °F 42.8 °F 76% 29.98 in 4.3 mi West 8.1 mph - N/A   Haze
9:00 PM 50.0 °F 42.8 °F 76% 29.98 in 4.3 mi West 5.8 mph - N/A   Haze
10:00 PM 50.0 °F 42.8 °F 76% 29.98 in 4.3 mi Calm Calm - N/A   Haze
11:00 PM 49 °F 41 °F 64% 29.97 in 4 mi West 8.9 mph - -   Haze
11:00 PM 50.0 °F 41.0 °F 71% 29.98 in 3.7 mi West 4.6 mph - N/A   Haze